Regional Weather Roundup
Issued by NWS

Home | Current Version | Previous Version | Graphics & Text | Print | Product List | Glossary On
Versions: 1 2 3 4 5 6 7 8 9 10 11 12 13 14 15 16 17 18 19 20 21 22 23 24 25 26 27 28 29 30 31 32 33 34 35 36 37 38 39 40 41 42 43 44 45 46 47 48 49 50
000
ASUS45 KSLC 220810
RWRUT

UTAH REGIONAL WEATHER ROUNDUP
NATIONAL WEATHER SERVICE SALT LAKE CITY UT
100 AM MST SAT NOV 22 2014

UTZ001>011-023>025-220900-

NORTHERN UTAH

CITY           SKY/WX    TMP DP  RH WIND       PRES   REMARKS
BRIGHAM CITY   MOCLDY    30  24  78 CALM      29.97F
HILL AFB       MOCLDY    37  24  58 S12       29.97F WCI  30
LOGAN          PTCLDY    31  26  82 S5        29.95F WCI  26
OGDEN          MOCLDY    35  23  61 S3        29.97S
PROVO AIRPORT  CLEAR     27  19  74 CALM      30.03F
SALT LAKE CITY MOCLDY    37  24  59 SE8       29.97F WCI  31
VERNAL         PTCLDY    23  13  65 CALM      30.04F
WENDOVER       MOCLDY    30  21  69 NE3       29.96F
HEBER CITY     CLEAR     27  19  74 CALM      30.02S
WEST JORDAN    CLEAR     43  28  56 S15       29.98S

$$

UTZ012>022-026-027-220900-

SOUTHERN/CENTRAL UTAH

CITY           SKY/WX    TMP DP  RH WIND       PRES   REMARKS
BLANDING       CLEAR     28  19  69 N5        30.18S WCI  23
BRYCE CANYON   PTCLDY    23  16  74 W13       30.14S WCI  11
CEDAR CITY     CLEAR     36  24  62 SE7       30.08S WCI  30
DELTA          PTCLDY    27  20  76 S9        30.02F WCI  17
MILFORD        CLEAR     37  23  56 S6        30.05F WCI  32
MOAB/CYNLANDS  CLEAR     26  14  60 CALM      30.07F
PRICE          PTCLDY    27  13  55 NE9       30.07S WCI  18
ST GEORGE      SUNNY     45  19  36 SE5       30.09R
KANAB          CLEAR     27  14  59 NE6       30.15R WCI  20

$$

REGIONAL REPORTS     COLORADO/ARIZONA

CITY           SKY/WX    TMP DP  RH WIND       PRES   REMARKS
CRAIG, CO      CLEAR     17  13  84 CALM      30.04S
GRAND JUNCTION CLEAR     31  17  56 E5        30.09S WCI  26
RIFLE          CLEAR     24  18  77 CALM      30.10S
MONTROSE       CLEAR     24  18  77 SE7       30.12S WCI  16
CORTEZ         CLEAR     21  17  84 E5        30.12F WCI  15
PAGE, AZ       NOT AVBL
GRAND CANYON   CLEAR     17   9  70 CALM      30.15R
KINGMAN        CLEAR     42  19  39 CALM      30.08S
FLAGSTAFF      PTCLDY    21  13  71 CALM      30.13F

$$

REGIONAL REPORTS    NEVADA/IDAHO/WYOMING

CITY           SKY/WX    TMP DP  RH WIND       PRES   REMARKS
LAS VEGAS, NV  CLEAR     54  28  36 S12       30.00S
ELY            PTCLDY    28  18  66 S12       30.06S WCI  18
ELKO           CLOUDY    41  31  67 S6        30.01R
POCATELLO, ID  MOCLDY    43  26  51 S14       29.87F
BURLEY         CLOUDY    41  30  65 W7        29.88R
EVANSTON, WY   MOCLDY    32  21  64 SW12      29.98F WCI  23
ROCK SPRINGS   CLEAR     30  17  58 SW13      29.96F WCI  20
KEMMERER       MOCLDY    28  19  69 SW5       29.97S WCI  23

$$



USA.gov is the U.S. government's official web portal to all federal, state and local government web resources and services.